DMSP 5D-2 F13 DEB, 40415

Orbit data source: Space-Track

DMSP 5D-2 F13 DEB, 40415 is space debris in SSO originally from a launch on Fri, 24 Mar 1995 UTC launched from the Air Force Western Test Range (AFWTR). Debris objects in space refer to the collection of defunct objects orbiting the Earth. Examples of debris include non-operational satellites, rocket bodies, and fragments generated from explosions, collisions, or faulty payload assembly.

Loading next visibility...
Identifier
40415, 1995-015AC
Orbit
SSO
Last TLE update
22 hours ago
Origin
Manufacturer
Unknown
Mission
Spacecraft
Bus & Motor
Unknown
Mass
Unknown
Launch date (UTC)
1995-03-24 (30 years ago)
Launch vehicle
Unknown
Launch site
Air Force Western Test Range (AFWTR)
Object type
Payload
Rocket body
Debris
Shape & HBR
Unknown
Radar Cross Section
Small (<0.1 m²)

Expand to show TLE details & history

TLE from 22 hours ago
0 DMSP 5D-2 F13 DEB
1 40415U 95015AC  25128.31588747  .00002769  00000-0  11462-2 0  9995
2 40415  98.7475 150.3645 0007627  83.9188 276.2862 14.27435499528241
Epoch: 2025-05-08T07:34Z
Definitive object data (Epoch: 2025-05-08T07:34:52.677Z)
Latitude
0.00005°
Longitude
170.25687°
Altitude
802.644 km
Speed
7.452 km/s
True Right ascension
10h 01m 27s
True Declination
0° 00' 00"
Sunlit
Object was in daylight at TLE epoch
Visualization TLE readout
Latitude
45.12525°
Longitude
0.03736°
Altitude
803.815 km
Speed
7.458 km/s
Apparent Right ascension
00h 24m 58s
Apparent Declination
6° 22' 21"
Sunlit
Object is in daylight
Visualization observer readout
Local Sidereal Time
14:13:24
Azimuth
34.754° NE
Elevation
-37.393°
Doppler factor
1
Orbital elements
Apogee altitude
802.939 km
Perigee altitude
791.993 km
Semi-major axis
7,175.603 km
Eccentricity
0.0007627
Inclination
98.7475°
RAAN
150.3645°
Arg. of periapsis
83.9188°
True anomaly
276.19932°
Mean anomaly
276.2862°
Eccentric anomaly
276.24276°
Mean motion
3.57072 °/min
BSTAR
0.0011462
Orbital period
100.82 mins
Loading maneuver chart data...
Loading SW <> Apogee altitude chart data...

DMSP 5D-2 F13 DEB Visibility forecast

Observer location: undefined°, undefined°

Span
Click to sort rows by Start time (UTC) header in descending order
Start Az.
Max El. time (UTC)
Max El. Az.
Max El.
End time (UTC)
End Az.
9 mins2025-05-09 14:26:38.258Z11.059° NNE2025-05-09 14:30:38.258Z303.912° NW44.689°2025-05-09 14:35:38.258Z198.645° SSW
5 mins2025-05-10 00:07:38.258Z95.985° ESE2025-05-10 00:10:38.258Z55.401° ENE17.437°2025-05-10 00:12:38.258Z29.667° NE
8 mins2025-05-10 01:45:38.258Z185.833° SSW2025-05-10 01:49:38.258Z272.973° WNW39.282°2025-05-10 01:53:38.258Z334.883° NNW
|